DAL1515 KLAX-KLAS

Flight info

Callsign DAL1515
Flight time 0h 49m
Altitude 29000
Route ORCKA5 MISEN RNDRZ4
Aircraft B738/M-SDE2E3FGHIRWXY/LB1

Departure

Time 2026-05-06 23:37
Airport Los Angeles International Airport (KLAX)

Arrival

Time 2026-05-07 00:27
Airport Harry Reid International Airport (KLAS)
Time Latitude Longitude Altitude Speed Heading
2026-05-06 23:00 33.94685 -118.40989 92 ft 0 kts 220°
2026-05-06 23:21 33.94696 -118.40977 92 ft 4 kts 220°
2026-05-06 23:21 33.94717 -118.40955 92 ft 4 kts 224°
2026-05-06 23:22 33.94735 -118.40932 94 ft 4 kts 232°
2026-05-06 23:22 33.94748 -118.40905 94 ft 4 kts 258°
2026-05-06 23:22 33.94750 -118.40899 92 ft 1 kts 263°
2026-05-06 23:25 33.94747 -118.40920 96 ft 8 kts 263°
2026-05-06 23:25 33.94736 -118.41031 92 ft 16 kts 263°
2026-05-06 23:25 33.94720 -118.41161 92 ft 15 kts 255°
2026-05-06 23:26 33.94693 -118.41275 92 ft 14 kts 262°
2026-05-06 23:26 33.94664 -118.41367 94 ft 12 kts 211°
2026-05-06 23:26 33.94581 -118.41367 92 ft 13 kts 172°
2026-05-06 23:26 33.94483 -118.41352 92 ft 16 kts 172°
2026-05-06 23:27 33.94359 -118.41333 92 ft 20 kts 174°
2026-05-06 23:27 33.94212 -118.41312 92 ft 23 kts 173°
2026-05-06 23:27 33.94047 -118.41289 93 ft 23 kts 173°
2026-05-06 23:27 33.93895 -118.41266 93 ft 19 kts 173°
2026-05-06 23:28 33.93783 -118.41245 95 ft 14 kts 154°
2026-05-06 23:28 33.93763 -118.41138 93 ft 14 kts 83°
2026-05-06 23:28 33.93774 -118.41024 92 ft 14 kts 82°
2026-05-06 23:28 33.93789 -118.40883 93 ft 20 kts 82°
2026-05-06 23:29 33.93812 -118.40677 95 ft 29 kts 82°
2026-05-06 23:29 33.93837 -118.40432 94 ft 27 kts 83°
2026-05-06 23:29 33.93857 -118.40219 95 ft 25 kts 83°
2026-05-06 23:29 33.93877 -118.40023 95 ft 23 kts 83°
2026-05-06 23:30 33.93896 -118.39835 98 ft 22 kts 84°
2026-05-06 23:30 33.93914 -118.39652 95 ft 22 kts 82°
2026-05-06 23:30 33.93934 -118.39475 94 ft 21 kts 82°
2026-05-06 23:30 33.93950 -118.39303 94 ft 20 kts 83°
2026-05-06 23:31 33.93968 -118.39136 94 ft 20 kts 83°
2026-05-06 23:31 33.93984 -118.38974 94 ft 19 kts 84°
2026-05-06 23:31 33.94001 -118.38818 94 ft 18 kts 82°
2026-05-06 23:31 33.94015 -118.38667 95 ft 18 kts 84°
2026-05-06 23:32 33.94026 -118.38559 94 ft 0 kts 84°
2026-05-06 23:32 33.94027 -118.38554 95 ft 2 kts 84°
2026-05-06 23:32 33.94031 -118.38507 95 ft 9 kts 83°
2026-05-06 23:33 33.94042 -118.38400 98 ft 16 kts 82°
2026-05-06 23:33 33.94060 -118.38237 94 ft 23 kts 83°
2026-05-06 23:33 33.94078 -118.38066 92 ft 14 kts 83°
2026-05-06 23:33 33.94022 -118.37996 93 ft 11 kts 173°
2026-05-06 23:34 33.93984 -118.38036 92 ft 0 kts 257°
2026-05-06 23:36 33.93976 -118.38092 93 ft 28 kts 263°
2026-05-06 23:37 33.93923 -118.38611 98 ft 95 kts 263°
2026-05-06 23:37 33.93818 -118.39636 122 ft 146 kts 263°
2026-05-06 23:37 33.93713 -118.40838 747 ft 143 kts 264°
2026-05-06 23:37 33.93574 -118.42116 1279 ft 158 kts 262°
2026-05-06 23:38 33.93389 -118.43447 1922 ft 167 kts 260°
2026-05-06 23:38 33.93194 -118.44933 2162 ft 199 kts 261°
2026-05-06 23:38 33.92854 -118.46724 2121 ft 239 kts 256°
2026-05-06 23:38 33.92307 -118.48726 2424 ft 260 kts 250°
2026-05-06 23:39 33.91651 -118.50737 3292 ft 255 kts 249°
2026-05-06 23:39 33.91006 -118.52697 4191 ft 250 kts 250°
2026-05-06 23:39 33.90392 -118.54674 4868 ft 253 kts 252°
2026-05-06 23:39 33.89790 -118.56691 5485 ft 259 kts 253°
2026-05-06 23:40 33.89178 -118.58737 6205 ft 261 kts 249°
2026-05-06 23:40 33.88042 -118.60456 6806 ft 269 kts 213°
2026-05-06 23:40 33.86268 -118.61123 7389 ft 271 kts 178°
2026-05-06 23:40 33.84452 -118.60655 8094 ft 267 kts 149°
2026-05-06 23:41 33.83032 -118.59282 8744 ft 263 kts 122°
2026-05-06 23:41 33.82329 -118.57311 9474 ft 255 kts 94°
2026-05-06 23:41 33.82462 -118.55178 9954 ft 264 kts 67°
2026-05-06 23:41 33.83426 -118.53252 10231 ft 281 kts 46°
2026-05-06 23:42 33.84950 -118.51636 10411 ft 304 kts 39°
2026-05-06 23:42 33.86673 -118.50010 10587 ft 326 kts 38°
2026-05-06 23:42 33.88460 -118.48302 10985 ft 338 kts 39°
2026-05-06 23:42 33.90319 -118.46486 11636 ft 342 kts 39°
2026-05-06 23:43 33.92153 -118.44649 12326 ft 344 kts 42°
2026-05-06 23:43 33.93242 -118.43320 12748 ft 347 kts 49°
2026-05-06 23:43 33.95104 -118.40197 13621 ft 353 kts 55°
2026-05-06 23:43 33.96005 -118.38568 14045 ft 356 kts 55°
2026-05-06 23:44 33.97375 -118.36107 14692 ft 358 kts 55°
2026-05-06 23:44 33.98781 -118.33607 15401 ft 360 kts 54°
2026-05-06 23:44 34.00197 -118.31104 16056 ft 364 kts 54°
2026-05-06 23:44 34.01632 -118.28573 16677 ft 368 kts 54°
2026-05-06 23:45 34.03083 -118.26016 17307 ft 371 kts 54°
2026-05-06 23:45 34.04546 -118.23437 17932 ft 375 kts 54°
2026-05-06 23:45 34.06024 -118.20828 18511 ft 379 kts 54°
2026-05-06 23:45 34.07515 -118.18194 19032 ft 382 kts 54°
2026-05-06 23:46 34.09020 -118.15533 19602 ft 385 kts 54°
2026-05-06 23:46 34.10534 -118.12853 20184 ft 388 kts 54°
2026-05-06 23:46 34.12056 -118.10159 20730 ft 390 kts 54°
2026-05-06 23:46 34.13589 -118.07443 21263 ft 393 kts 54°
2026-05-06 23:47 34.15128 -118.04713 21931 ft 392 kts 54°
2026-05-06 23:47 34.16661 -118.01991 22502 ft 394 kts 54°
2026-05-06 23:47 34.18209 -117.99241 22913 ft 398 kts 54°
2026-05-06 23:47 34.19775 -117.96460 23336 ft 402 kts 54°
2026-05-06 23:48 34.21354 -117.93652 23760 ft 405 kts 54°
2026-05-06 23:48 34.22941 -117.90823 24194 ft 407 kts 54°
2026-05-06 23:48 34.24529 -117.87988 24649 ft 408 kts 54°
2026-05-06 23:48 34.26125 -117.85143 25056 ft 410 kts 54°
2026-05-06 23:49 34.27728 -117.82283 25451 ft 412 kts 54°
2026-05-06 23:49 34.29319 -117.79441 25790 ft 415 kts 54°
2026-05-06 23:49 34.30938 -117.76543 26246 ft 415 kts 54°
2026-05-06 23:49 34.32545 -117.73666 26872 ft 411 kts 54°
2026-05-06 23:50 34.34148 -117.70803 27331 ft 411 kts 54°
2026-05-06 23:50 34.37387 -117.65111 28373 ft 408 kts 53°
2026-05-06 23:50 34.39053 -117.62341 28950 ft 406 kts 52°
2026-05-06 23:51 34.42425 -117.56785 29030 ft 410 kts 52°
2026-05-06 23:51 34.45756 -117.51247 29066 ft 404 kts 52°
2026-05-06 23:52 34.49058 -117.45713 29103 ft 406 kts 53°
2026-05-06 23:52 34.52361 -117.40155 29100 ft 406 kts 53°
2026-05-06 23:53 34.55656 -117.34598 29089 ft 406 kts 53°
2026-05-06 23:53 34.58943 -117.29047 29085 ft 404 kts 53°
2026-05-06 23:54 34.62216 -117.23511 29077 ft 403 kts 53°
2026-05-06 23:54 34.65477 -117.17989 28997 ft 402 kts 53°
2026-05-06 23:55 34.68731 -117.12470 29006 ft 402 kts 53°
2026-05-06 23:55 34.71987 -117.06938 29010 ft 402 kts 53°
2026-05-06 23:56 34.75240 -117.01402 29012 ft 403 kts 53°
2026-05-06 23:56 34.78474 -116.95891 29015 ft 403 kts 53°
2026-05-06 23:57 34.81727 -116.90337 29010 ft 403 kts 53°
2026-05-06 23:57 34.84982 -116.84771 29016 ft 404 kts 53°
2026-05-06 23:58 34.88235 -116.79201 29008 ft 404 kts 53°
2026-05-06 23:58 34.91490 -116.73619 29009 ft 404 kts 53°
2026-05-06 23:59 34.94702 -116.68003 29005 ft 404 kts 54°
2026-05-06 23:59 34.97879 -116.62346 28994 ft 404 kts 54°
2026-05-07 00:00 35.01057 -116.56688 28985 ft 404 kts 54°
2026-05-07 00:00 35.04236 -116.51034 28987 ft 404 kts 54°
2026-05-07 00:01 35.07367 -116.45456 28688 ft 391 kts 54°
2026-05-07 00:01 35.08882 -116.42753 28322 ft 383 kts 54°
2026-05-07 00:01 35.10390 -116.40102 27918 ft 377 kts 51°
2026-05-07 00:02 35.12091 -116.37686 27437 ft 373 kts 45°
2026-05-07 00:02 35.13893 -116.35429 27000 ft 369 kts 44°
2026-05-07 00:02 35.15697 -116.33213 26572 ft 366 kts 44°
2026-05-07 00:02 35.17471 -116.31000 26128 ft 363 kts 45°
2026-05-07 00:03 35.19210 -116.28783 25682 ft 360 kts 45°
2026-05-07 00:03 35.20926 -116.26570 25271 ft 357 kts 45°
2026-05-07 00:03 35.22626 -116.24370 24846 ft 355 kts 46°
2026-05-07 00:03 35.24262 -116.22177 24439 ft 353 kts 47°
2026-05-07 00:04 35.25887 -116.19939 24026 ft 351 kts 47°
2026-05-07 00:04 35.27506 -116.17702 23583 ft 351 kts 47°
2026-05-07 00:04 35.29123 -116.15475 23113 ft 349 kts 47°
2026-05-07 00:04 35.30738 -116.13258 22661 ft 348 kts 47°
2026-05-07 00:05 35.32340 -116.11059 22215 ft 345 kts 47°
2026-05-07 00:05 35.33935 -116.08871 21797 ft 343 kts 47°
2026-05-07 00:05 35.35514 -116.06703 21386 ft 340 kts 47°
2026-05-07 00:05 35.37081 -116.04548 20973 ft 338 kts 47°
2026-05-07 00:06 35.38639 -116.02406 20569 ft 335 kts 46°
2026-05-07 00:06 35.40188 -116.00275 20174 ft 334 kts 47°
2026-05-07 00:06 35.41728 -115.98155 19774 ft 332 kts 47°
2026-05-07 00:06 35.43260 -115.96043 19361 ft 331 kts 46°
2026-05-07 00:07 35.44784 -115.93941 18971 ft 329 kts 47°
2026-05-07 00:07 35.46303 -115.91845 18567 ft 329 kts 47°
2026-05-07 00:07 35.47819 -115.89753 18149 ft 328 kts 47°
2026-05-07 00:07 35.49334 -115.87660 17717 ft 327 kts 47°
2026-05-07 00:08 35.50839 -115.85580 17302 ft 325 kts 47°
2026-05-07 00:08 35.52337 -115.83508 16895 ft 323 kts 47°
2026-05-07 00:08 35.53824 -115.81449 16493 ft 321 kts 47°
2026-05-07 00:08 35.55286 -115.79425 16358 ft 311 kts 47°
2026-05-07 00:09 35.56702 -115.77462 16205 ft 303 kts 47°
2026-05-07 00:09 35.58078 -115.75554 16085 ft 294 kts 47°
2026-05-07 00:09 35.59414 -115.73706 15945 ft 286 kts 47°
2026-05-07 00:09 35.60742 -115.71906 15820 ft 284 kts 47°
2026-05-07 00:10 35.62092 -115.70090 15696 ft 292 kts 47°
2026-05-07 00:10 35.63461 -115.68249 15547 ft 298 kts 47°
2026-05-07 00:10 35.64856 -115.66367 15394 ft 297 kts 47°
2026-05-07 00:10 35.66240 -115.64499 15237 ft 294 kts 47°
2026-05-07 00:11 35.67613 -115.62642 15111 ft 292 kts 46°
2026-05-07 00:11 35.68978 -115.60796 14942 ft 291 kts 46°
2026-05-07 00:11 35.70336 -115.58959 14797 ft 289 kts 46°
2026-05-07 00:11 35.71685 -115.57132 14644 ft 287 kts 46°
2026-05-07 00:12 35.73082 -115.55384 14502 ft 286 kts 36°
2026-05-07 00:12 35.74769 -115.54111 14374 ft 284 kts 29°
2026-05-07 00:12 35.76497 -115.52933 14228 ft 284 kts 29°
2026-05-07 00:12 35.78226 -115.51753 14093 ft 284 kts 29°
2026-05-07 00:13 35.79952 -115.50565 13947 ft 285 kts 30°
2026-05-07 00:13 35.81680 -115.49366 13810 ft 286 kts 30°
2026-05-07 00:13 35.83415 -115.48154 13635 ft 287 kts 28°
2026-05-07 00:13 35.85155 -115.46938 13487 ft 287 kts 28°
2026-05-07 00:14 35.86893 -115.45721 13337 ft 287 kts 28°
2026-05-07 00:14 35.88631 -115.44500 13187 ft 287 kts 28°
2026-05-07 00:14 35.90366 -115.43281 13038 ft 287 kts 28°
2026-05-07 00:14 35.92113 -115.42058 12793 ft 290 kts 28°
2026-05-07 00:15 35.93872 -115.40831 12544 ft 291 kts 28°
2026-05-07 00:15 35.95636 -115.39602 12296 ft 292 kts 28°
2026-05-07 00:15 35.97397 -115.38373 12037 ft 290 kts 28°
2026-05-07 00:15 35.99143 -115.37145 11777 ft 287 kts 31°
2026-05-07 00:16 36.00584 -115.35464 11518 ft 288 kts 56°
2026-05-07 00:16 36.01357 -115.33182 11299 ft 292 kts 76°
2026-05-07 00:16 36.01455 -115.30657 11033 ft 297 kts 89°
2026-05-07 00:16 36.01330 -115.28109 10794 ft 298 kts 90°
2026-05-07 00:17 36.01182 -115.25564 10534 ft 299 kts 90°
2026-05-07 00:17 36.01035 -115.23014 10279 ft 296 kts 90°
2026-05-07 00:17 36.00896 -115.20491 10008 ft 293 kts 90°
2026-05-07 00:17 36.00768 -115.18018 9748 ft 290 kts 90°
2026-05-07 00:18 36.00644 -115.15575 9493 ft 287 kts 90°
2026-05-07 00:18 36.00519 -115.13101 9231 ft 284 kts 90°
2026-05-07 00:18 36.00396 -115.10675 8980 ft 281 kts 90°
2026-05-07 00:18 36.00275 -115.08298 8712 ft 273 kts 90°
2026-05-07 00:19 36.00157 -115.05989 8432 ft 266 kts 91°
2026-05-07 00:19 36.00041 -115.03739 8158 ft 260 kts 91°
2026-05-07 00:19 35.99926 -115.01535 7875 ft 254 kts 90°
2026-05-07 00:19 35.99909 -114.99382 7547 ft 249 kts 85°
2026-05-07 00:20 35.99978 -114.97255 7144 ft 247 kts 84°
2026-05-07 00:20 36.00058 -114.95142 6792 ft 245 kts 85°
2026-05-07 00:20 36.00106 -114.93042 6440 ft 244 kts 87°
2026-05-07 00:20 36.00117 -114.90958 6074 ft 243 kts 88°
2026-05-07 00:21 36.00130 -114.88879 5705 ft 241 kts 88°
2026-05-07 00:21 36.00244 -114.86826 5316 ft 239 kts 71°
2026-05-07 00:21 36.01162 -114.85202 4963 ft 230 kts 32°
2026-05-07 00:21 36.02663 -114.84659 4631 ft 227 kts
2026-05-07 00:22 36.04237 -114.84674 4302 ft 225 kts 359°
2026-05-07 00:22 36.05754 -114.84844 4102 ft 221 kts 341°
2026-05-07 00:22 36.06954 -114.86006 3884 ft 221 kts 298°
2026-05-07 00:22 36.07296 -114.87859 3858 ft 227 kts 275°
2026-05-07 00:23 36.07388 -114.89825 3811 ft 228 kts 272°
2026-05-07 00:23 36.07410 -114.91703 3770 ft 213 kts 270°
2026-05-07 00:23 36.07406 -114.93481 3750 ft 197 kts 270°
2026-05-07 00:23 36.07400 -114.95156 3761 ft 193 kts 270°
2026-05-07 00:24 36.07395 -114.96814 3782 ft 194 kts 271°
2026-05-07 00:24 36.07391 -114.98490 3781 ft 196 kts 270°
2026-05-07 00:24 36.07386 -115.00160 3790 ft 192 kts 270°
2026-05-07 00:24 36.07383 -115.01823 3755 ft 199 kts 270°
2026-05-07 00:25 36.07380 -115.03546 3518 ft 199 kts 270°
2026-05-07 00:25 36.07376 -115.05167 3280 ft 180 kts 270°
2026-05-07 00:25 36.07371 -115.06641 3046 ft 166 kts 271°
2026-05-07 00:25 36.07373 -115.08043 2834 ft 162 kts 270°
2026-05-07 00:26 36.07367 -115.09443 2654 ft 163 kts 269°
2026-05-07 00:26 36.07369 -115.10854 2345 ft 167 kts 269°
2026-05-07 00:26 36.07364 -115.12267 2183 ft 164 kts 269°
2026-05-07 00:26 36.07364 -115.13682 2074 ft 154 kts 270°
2026-05-07 00:27 36.07366 -115.14755 2093 ft 94 kts 270°
2026-05-07 00:27 36.07380 -115.15300 2103 ft 35 kts 289°
2026-05-07 00:27 36.07446 -115.15460 2105 ft 16 kts 299°
2026-05-07 00:27 36.07488 -115.15546 2105 ft 10 kts 303°
2026-05-07 00:28 36.07523 -115.15603 2108 ft 7 kts 313°
2026-05-07 00:28 36.07567 -115.15658 2115 ft 11 kts 316°
2026-05-07 00:28 36.07629 -115.15733 2121 ft 15 kts 314°
2026-05-07 00:28 36.07690 -115.15801 2120 ft 10 kts 328°
2026-05-07 00:29 36.07771 -115.15820 2113 ft 15 kts 20°
2026-05-07 00:29 36.07803 -115.15696 2106 ft 17 kts 92°
2026-05-07 00:30 36.07806 -115.15253 2100 ft 16 kts 90°
2026-05-07 00:30 36.07806 -115.15114 2099 ft 17 kts 90°
2026-05-07 00:30 36.07800 -115.14959 2099 ft 20 kts 96°
2026-05-07 00:30 36.07783 -115.14786 2098 ft 21 kts 95°
2026-05-07 00:31 36.07772 -115.14602 2096 ft 22 kts 94°
2026-05-07 00:31 36.07762 -115.14419 2096 ft 21 kts 96°
2026-05-07 00:31 36.07754 -115.14302 2095 ft 20 kts 93°
2026-05-07 00:31 36.07755 -115.14133 2093 ft 19 kts 89°
2026-05-07 00:32 36.07756 -115.13971 2092 ft 19 kts 90°
2026-05-07 00:32 36.07758 -115.13837 2092 ft 13 kts 76°
2026-05-07 00:32 36.07819 -115.13818 2092 ft 10 kts 303°
2026-05-07 00:32 36.07827 -115.13899 2092 ft 9 kts 272°
2026-05-07 00:33 36.07834 -115.13972 2092 ft 9 kts 293°
2026-05-07 00:33 36.07871 -115.14030 2092 ft 9 kts 319°
2026-05-07 00:33 36.07919 -115.14038 2092 ft 5 kts 17°
2026-05-07 00:33 36.07965 -115.14013 2092 ft 8 kts 24°
2026-05-07 00:34 36.07976 -115.14008 2092 ft 0 kts 24°
2026-05-07 00:34 36.07979 -115.14006 2092 ft 0 kts 27°